Погода в Красном Октябре

Россия / Владимирская область     56°06′21″N   41°23′00″E
темп.,
°C
ветер,
м/с
пор.,
м/с
влажн.,
%
обл.,
%
осадки,
мм/ч
давл.,
гПа
погр.,
м
20 апреля, вт
вт2000:00+3в51249100 0.1 1026608
03:00+2в41254100 0.1 1026519
06:00+1в4116092 0.0 1026422
09:00+5в61052100 0.0 1025739
12:00+9вюв71048100 0.0 10231336
15:00+10вюв61148100 0.0 10221593
18:00+8вюв51356100 0.3 10201436
21:00+6вюв61576100 1.5 10181289
21 апреля, ср
ср2100:00+5вюв71677100 1.0 10141194
03:00+2в71797100 8.0 10101050
06:00+5вюв81889100 1.6 1006988
09:00+7юв71691100 1.8 10051230
12:00+7юв81590100 2.4 10041046
15:00+7юз61094100 4.0 1006891
18:00+4юз5985100 0.1 1009819
21:00+3ююз41091100 0.1 1011638
22 апреля, чт
чт2200:00+4ююз41092100 0.0 1012624
03:00+4ююз3994100 0.0 1014590
06:00+3ююз389698 0.0 1015369
09:00+6ююз3684100 0.0 1016763
12:00+5ююз469093 0.1 1018537
15:00+10юз4660100 0.1 10171463
18:00+9ююз476911 0.1 1018766
21:00+5ю389135 0.1 1019134
23 апреля, пт
пт2300:00+4ю26945 0.0 1019103
03:00+4юв38955 0.0 1019153
06:00+4ююв39966 0.0 1019197
09:00+11ю47735 0.0 1018569
12:00+16ю575223 0.0 10171529
15:00+17ююз474797 1.2 10162383
18:00+14ююв41162100 0.0 1016540
21:00+11ююв311755 0.0 1017313
24 апреля, сб
сб2400:00+8ююв311845 0.0 1015253
03:00+7юв311905 0.0 1014257
06:00+7юв412855 0.0 1013375
09:00+13ююв6116560 0.0 1011762
12:00+15ююв7105480 0.6 10091740
15:00+15ю5861100 2.9 10081528
18:00+6з71091100 3.1 1009652
21:00+4зсз41096100 5.9 1010548